When you browse on this site, cookies collect data to enhance your experience and personalize the content and advertising you see.
Visit our Privacy Policy to learn more. By continuing to use the site, you agree to this use of cookies and data.
  • In Portugal
  • List of Countries
  • For 7 days
  • Water Temperature
  • Satellite Maps
  • Weather Map
  • Weather Widgets
  • user-avatar
    Login

    Hourly Weather Ozery

    Today, 26 April, Friday

    Time Temperature Precipitation Wind Pressure Humidity
    00:00 +13°C° 0 mm 2 mps 748 mmHg 57%
    01:00 +12°C° 0 mm 2 mps 748 mmHg 59%
    02:00 +12°C° 0 mm 2 mps 748 mmHg 60%
    03:00 +10°C° 0 mm 2 mps 748 mmHg 61%
    04:00 +10°C° 0 mm 2 mps 748 mmHg 63%
    05:00 +9°C° 0 mm 2 mps 748 mmHg 65%
    06:00 +12°C° 0 mm 2 mps 747 mmHg 63%
    07:00 +13°C° 0 mm 3 mps 747 mmHg 60%
    08:00 +14°C° 0 mm 3 mps 747 mmHg 58%
    09:00 +17°C° 0 mm 3 mps 747 mmHg 54%
    10:00 +18°C° 0 mm 4 mps 747 mmHg 50%
    11:00 +20°C° 0 mm 4 mps 747 mmHg 45%
    12:00 +21°C° 0 mm 4 mps 746 mmHg 44%
    13:00 +21°C° 0 mm 4 mps 746 mmHg 43%
    14:00 +22°C° 0 mm 4 mps 746 mmHg 42%
    15:00 +21°C° 0 mm 4 mps 746 mmHg 44%
    16:00 +21°C° 0 mm 4 mps 745 mmHg 46%
    17:00 +21°C° 0 mm 3 mps 745 mmHg 47%
    18:00 +19°C° 0 mm 3 mps 744 mmHg 51%
    19:00 +17°C° 0 mm 3 mps 744 mmHg 54%
    20:00 +16°C° 0 mm 3 mps 744 mmHg 57%
    21:00 +14°C° 0 mm 3 mps 744 mmHg 57%
    22:00 +13°C° 0 mm 3 mps 744 mmHg 57%
    23:00 +12°C° 0 mm 3 mps 744 mmHg 57%

    Tomorrow, 27 April, Saturday

    Time Temperature Precipitation Wind Pressure Humidity
    00:00 +12°C° 0 mm 3 mps 743 mmHg 59%
    01:00 +11°C° 0 mm 3 mps 743 mmHg 60%
    02:00 +11°C° 0 mm 3 mps 743 mmHg 62%
    03:00 +11°C° 0 mm 3 mps 742 mmHg 65%
    04:00 +10°C° 0 mm 3 mps 742 mmHg 69%
    05:00 +10°C° 0 mm 3 mps 742 mmHg 73%
    06:00 +11°C° 0.1 mm 3 mps 741 mmHg 72%
    07:00 +13°C° 0.1 mm 4 mps 741 mmHg 71%
    08:00 +14°C° 0.1 mm 4 mps 741 mmHg 71%
    09:00 +17°C° 0.6 mm 4 mps 741 mmHg 68%
    10:00 +19°C° 0.6 mm 4 mps 741 mmHg 66%
    11:00 +20°C° 0.6 mm 4 mps 741 mmHg 63%
    12:00 +21°C° 0.2 mm 4 mps 740 mmHg 60%
    13:00 +22°C° 0.2 mm 4 mps 740 mmHg 57%
    14:00 +23°C° 0.2 mm 5 mps 739 mmHg 54%
    15:00 +22°C° 1.5 mm 4 mps 739 mmHg 59%
    16:00 +21°C° 1.5 mm 3 mps 738 mmHg 65%
    17:00 +20°C° 1.5 mm 2 mps 738 mmHg 71%
    18:00 +19°C° 0.1 mm 2 mps 738 mmHg 75%
    19:00 +19°C° 0.1 mm 1 mps 738 mmHg 79%
    20:00 +16°C° 0.1 mm 1 mps 738 mmHg 83%
    21:00 +16°C° 0.1 mm 1 mps 738 mmHg 85%
    22:00 +15°C° 0.1 mm 1 mps 738 mmHg 87%
    23:00 +14°C° 0.1 mm 1 mps 738 mmHg 89%

    Day after tomorrow, 28 April, Sunday

    Time Temperature Precipitation Wind Pressure Humidity
    00:00 +14°C° 0 mm 1 mps 737 mmHg 90%
    01:00 +12°C° 0 mm 0 mps 737 mmHg 91%
    02:00 +12°C° 0 mm 0 mps 737 mmHg 93%
    03:00 +13°C° 0 mm 1 mps 738 mmHg 93%
    04:00 +13°C° 0 mm 2 mps 738 mmHg 94%
    05:00 +12°C° 0 mm 2 mps 738 mmHg 95%
    06:00 +13°C° 0 mm 3 mps 738 mmHg 91%
    07:00 +14°C° 0 mm 4 mps 739 mmHg 87%
    08:00 +15°C° 0 mm 5 mps 739 mmHg 83%
    09:00 +14°C° 0 mm 6 mps 740 mmHg 82%
    10:00 +14°C° 0 mm 7 mps 740 mmHg 81%
    11:00 +12°C° 0 mm 8 mps 741 mmHg 80%
    12:00 +12°C° 0 mm 7 mps 741 mmHg 78%
    13:00 +11°C° 0 mm 7 mps 742 mmHg 76%
    14:00 +11°C° 0 mm 7 mps 742 mmHg 74%
    15:00 +11°C° 0 mm 7 mps 742 mmHg 72%
    16:00 +11°C° 0 mm 6 mps 743 mmHg 69%
    17:00 +13°C° 0 mm 6 mps 743 mmHg 66%
    18:00 +10°C° 0 mm 6 mps 744 mmHg 63%
    19:00 +9°C° 0 mm 6 mps 744 mmHg 61%
    20:00 +8°C° 0 mm 6 mps 745 mmHg 58%
    21:00 +7°C° 0 mm 6 mps 745 mmHg 58%
    22:00 +5°C° 0 mm 6 mps 746 mmHg 57%
    23:00 +4°C° 0 mm 6 mps 746 mmHg 56%

    29 April, Monday

    Time Temperature Precipitation Wind Pressure Humidity
    00:00 +3°C° 0 mm 6 mps 746 mmHg 58%
    01:00 +3°C° 0 mm 5 mps 747 mmHg 59%
    02:00 +2°C° 0 mm 5 mps 747 mmHg 61%
    03:00 +1°C° 0 mm 5 mps 747 mmHg 62%
    04:00 +1°C° 0 mm 5 mps 747 mmHg 63%
    05:00 +1°C° 0 mm 5 mps 747 mmHg 64%
    06:00 +2°C° 0 mm 6 mps 748 mmHg 63%
    07:00 +3°C° 0 mm 6 mps 748 mmHg 61%
    08:00 +4°C° 0 mm 6 mps 748 mmHg 59%
    09:00 +5°C° 0 mm 7 mps 748 mmHg 56%
    10:00 +6°C° 0 mm 7 mps 748 mmHg 52%
    11:00 +8°C° 0 mm 7 mps 748 mmHg 49%
    12:00 +9°C° 0 mm 7 mps 748 mmHg 48%
    13:00 +10°C° 0 mm 6 mps 748 mmHg 48%
    14:00 +10°C° 0 mm 6 mps 747 mmHg 47%
    15:00 +10°C° 0 mm 6 mps 747 mmHg 47%
    16:00 +10°C° 0 mm 6 mps 747 mmHg 48%
    17:00 +10°C° 0 mm 5 mps 747 mmHg 48%
    18:00 +8°C° 0 mm 5 mps 747 mmHg 53%
    19:00 +7°C° 0 mm 4 mps 747 mmHg 58%
    20:00 +5°C° 0 mm 3 mps 747 mmHg 63%
    21:00 +5°C° 0 mm 3 mps 747 mmHg 64%
    22:00 +4°C° 0 mm 3 mps 747 mmHg 65%
    23:00 +3°C° 0 mm 3 mps 747 mmHg 66%

    30 April, Tuesday

    Time Temperature Precipitation Wind Pressure Humidity
    00:00 +3°C° 0 mm 3 mps 747 mmHg 67%
    01:00 +2°C° 0 mm 3 mps 747 mmHg 69%
    02:00 +2°C° 0 mm 3 mps 746 mmHg 70%
    03:00 +2°C° 0 mm 3 mps 746 mmHg 71%
    04:00 +1°C° 0 mm 3 mps 746 mmHg 72%
    05:00 +1°C° 0 mm 3 mps 746 mmHg 74%
    06:00 +3°C° 0 mm 3 mps 746 mmHg 69%
    07:00 +4°C° 0 mm 4 mps 746 mmHg 65%
    08:00 +6°C° 0 mm 4 mps 746 mmHg 61%
    09:00 +7°C° 0 mm 4 mps 745 mmHg 57%
    10:00 +10°C° 0 mm 4 mps 745 mmHg 53%
    11:00 +11°C° 0 mm 4 mps 745 mmHg 49%
    12:00 +11°C° 0 mm 4 mps 745 mmHg 47%
    13:00 +12°C° 0 mm 4 mps 744 mmHg 46%
    14:00 +12°C° 0 mm 4 mps 744 mmHg 44%
    15:00 +12°C° 0 mm 4 mps 744 mmHg 45%
    16:00 +12°C° 0 mm 4 mps 743 mmHg 46%
    17:00 +12°C° 0 mm 4 mps 743 mmHg 47%
    18:00 +10°C° 0 mm 4 mps 743 mmHg 51%
    19:00 +8°C° 0 mm 4 mps 743 mmHg 56%
    20:00 +7°C° 0 mm 3 mps 743 mmHg 60%
    21:00 +5°C° 0 mm 3 mps 743 mmHg 59%
    22:00 +5°C° 0 mm 3 mps 743 mmHg 58%
    23:00 +4°C° 0 mm 3 mps 743 mmHg 58%

    1 May, Wednesday

    Time Temperature Precipitation Wind Pressure Humidity
    00:00 +4°C° 0 mm 3 mps 743 mmHg 58%
    01:00 +4°C° 0 mm 3 mps 742 mmHg 59%
    02:00 +4°C° 0 mm 3 mps 742 mmHg 60%
    03:00 +4°C° 0 mm 3 mps 742 mmHg 62%
    04:00 +3°C° 0 mm 3 mps 742 mmHg 64%
    05:00 +4°C° 0 mm 2 mps 742 mmHg 66%
    06:00 +5°C° 0 mm 2 mps 742 mmHg 63%
    07:00 +7°C° 0 mm 2 mps 742 mmHg 60%
    08:00 +9°C° 0 mm 2 mps 742 mmHg 58%
    09:00 +10°C° 0 mm 2 mps 742 mmHg 53%
    10:00 +12°C° 0 mm 2 mps 741 mmHg 48%
    11:00 +11°C° 0 mm 3 mps 741 mmHg 44%
    12:00 +12°C° 0 mm 2 mps 740 mmHg 44%
    13:00 +12°C° 0 mm 2 mps 740 mmHg 45%
    14:00 +12°C° 0 mm 2 mps 740 mmHg 45%
    15:00 +12°C° 0 mm 2 mps 739 mmHg 46%
    16:00 +12°C° 0 mm 2 mps 739 mmHg 48%
    17:00 +12°C° 0 mm 2 mps 739 mmHg 49%
    18:00 +11°C° 0 mm 1 mps 738 mmHg 51%
    19:00 +10°C° 0 mm 1 mps 738 mmHg 53%
    20:00 +10°C° 0 mm 1 mps 738 mmHg 54%
    21:00 +9°C° 0 mm 1 mps 738 mmHg 56%
    22:00 +8°C° 0 mm 1 mps 737 mmHg 58%
    23:00 +6°C° 0 mm 0 mps 737 mmHg 59%
    Show more